Date,TemperatureHighF,TemperatureAvgF,TemperatureLowF,DewpointHighF,DewpointAvgF,DewpointLowF,HumidityHigh,HumidityAvg,HumidityLow,PressureMaxIn,PressureMinIn,WindSpeedMaxMPH,WindSpeedAvgMPH,GustSpeedMaxMPH,PrecipitationSumIn
2013-4-1,69,57,46,42,37,20,74,51,31,30.19,30.09,37,19,37,0.00
2013-4-2,79,62,50,45,39,31,73,49,22,30.17,30.07,33,13,33,0.00
2013-4-3,90,65,42,42,34,25,71,40,15,30.19,30.08,25,7,25,0.00
2013-4-4,77,66,54,48,41,34,70,45,29,30.15,30.06,36,14,36,0.00
2013-4-5,70,60,53,55,44,32,74,57,35,30.14,30.04,46,23,46,0.00
2013-4-6,71,62,52,44,38,32,60,45,32,30.16,30.03,47,24,47,0.00
2013-4-7,74,63,51,42,37,29,60,42,25,30.07,29.88,48,21,49,0.00
2013-4-8,61,52,46,43,33,-12,68,49,35,29.92,29.70,59,31,59,0.30
2013-4-9,72,57,44,33,20,8,54,29,13,30.15,29.91,35,11,35,0.00
2013-4-10,84,62,36,30,16,4,47,23,10,30.25,30.08,32,10,32,0.00
2013-4-11,84,68,60,45,38,26,55,36,22,30.09,29.85,39,18,40,0.00
2013-4-12,91,69,48,46,40,26,70,42,15,29.98,29.85,25,10,25,0.00
2013-4-13,82,70,59,50,37,18,68,37,13,29.96,29.81,44,20,45,0.00
2013-4-14,75,65,55,45,38,0,66,41,23,29.88,29.80,49,29,49,0.00
2013-4-15,68,55,47,46,39,17,75,57,22,29.90,29.83,46,31,47,0.00
2013-4-16,57,49,38,28,23,15,54,39,24,30.08,29.88,43,18,43,0.00
2013-4-17,69,54,37,22,16,5,47,27,14,30.26,30.07,23,9,23,0.00
2013-4-18,72,55,34,17,6,-5,46,20,10,30.37,30.26,23,6,23,0.00
2013-4-19,83,61,36,25,13,3,35,20,10,30.33,30.09,47,10,47,0.00
2013-4-20,91,73,57,39,26,8,37,23,10,30.14,30.03,34,13,37,0.00
2013-4-21,92,72,48,37,29,8,48,26,10,30.13,30.02,35,11,35,0.00
2013-4-22,89,75,57,34,27,19,31,21,12,30.08,29.91,36,16,36,0.00
2013-4-23,84,71,54,39,22,8,44,21,10,30.11,29.93,31,10,31,0.76
2013-4-24,84,64,48,48,30,9,73,35,11,30.02,29.89,37,13,37,12.85
2013-4-25,80,64,48,46,42,36,74,51,28,30.14,29.96,36,21,37,0.00
2013-4-26,93,72,49,47,37,14,66,37,10,30.24,30.13,52,10,52,0.00
2013-4-27,96,76,52,41,35,17,57,29,10,30.27,30.11,27,10,27,0.00
2013-4-28,98,80,67,45,36,24,42,26,11,30.13,29.96,33,14,35,0.00
2013-4-29,94,79,60,43,32,21,36,23,12,30.01,29.85,34,15,34,0.04
2013-4-30,90,76,65,48,39,21,54,30,13,29.89,29.81,39,23,39,0.00